Waarnemingen

Advertentie
Mijn weer
Sevilla/San Pablo, Spanje (8391): temperatuur & dauwpunt: 17.05.2018 20:00:00 - 23.05.2018 20:00:00 (CEST)Sevilla/San Pablo, Spanje (8391): windsnelheid: 17.05.2018 20:00:00 - 23.05.2018 20:00:00 (CEST)Sevilla/San Pablo, Spanje (8391): windrichting: 17.05.2018 20:00:00 - 23.05.2018 20:00:00 (CEST)Sevilla/San Pablo, Spanje (8391): luchtdruk: 17.05.2018 20:00:00 - 23.05.2018 20:00:00 (CEST)Sevilla/San Pablo, Spanje (8391): zicht: 17.05.2018 20:00:00 - 23.05.2018 20:00:00 (CEST)
Datum & Tijd tt [°C] td [°C] ff [km/u] ff [kn] dd ppp [hPa] vv [km]
23.05.2018 20:00:00 - - - - - - -
23.05.2018 19:00:00 26,2 10,5 13 7 NW 1012,6 -
23.05.2018 18:00:00 26,9 11,5 11 6 NW 1012,7 -
23.05.2018 17:00:00 27,1 10,4 13 7 NW 1013,1 30
23.05.2018 16:00:00 26,4 12,6 5 3 ZW 1013,6 -
23.05.2018 15:00:00 25,5 13,6 9 5 WNW 1014,4 -
23.05.2018 14:00:00 24,4 13,3 4 2 WZW 1014,8 20
23.05.2018 13:00:00 23,3 14,3 8 4 WZW 1015,3 -
23.05.2018 12:00:00 22,7 15,3 5 3 WNW 1015,3 -
23.05.2018 11:00:00 21,8 15,1 2 1 NNW 1015,5 15
23.05.2018 10:00:00 19,2 14,4 5 3 NNO 1015,3 -
23.05.2018 09:00:00 17,2 14,7 4 2 NNO 1015,4 -
23.05.2018 08:00:00 15,4 13,8 8 4 NNO 1015,1 15
23.05.2018 07:00:00 14,9 13,6 5 3 ONO 1014,3 -
23.05.2018 06:00:00 15,1 13,1 4 2 O 1014,3 -
23.05.2018 05:00:00 15,4 13,4 9 5 Z 1014,2 30
23.05.2018 04:00:00 16,4 13,9 8 4 ZZO 1014,2 -
23.05.2018 03:00:00 17,7 14,2 0 0 N 1014,5 -
23.05.2018 02:00:00 18,1 13,8 0 0 N 1014,7 30
23.05.2018 01:00:00 19,0 14,0 0 0 N 1014,6 -
23.05.2018 00:00:00 20,1 14,0 8 4 NW 1014,6 -
22.05.2018 23:00:00 20,2 14,6 8 4 WNW 1014,2 30
22.05.2018 22:00:00 21,8 14,2 9 5 NW 1013,6 -
22.05.2018 21:00:00 23,7 13,3 9 5 NNW 1013,3 -
22.05.2018 20:00:00 25,9 10,5 11 6 W 1013,2 30
22.05.2018 19:00:00 26,6 8,9 8 4 WZW 1013,2 -
22.05.2018 18:00:00 25,9 10,5 9 5 W 1013,3 -
22.05.2018 17:00:00 26,1 10,0 5 3 W 1013,7 30
22.05.2018 16:00:00 24,8 12,3 8 4 WNW 1014,2 -
22.05.2018 15:00:00 23,1 12,7 5 3 WNW 1014,9 -
22.05.2018 14:00:00 21,8 13,2 4 2 NW 1015,4 -
22.05.2018 13:00:00 21,2 12,0 5 3 OZO 1015,6 -
22.05.2018 12:00:00 19,7 12,2 5 3 O 1015,9 -
22.05.2018 11:00:00 17,7 12,1 4 2 NO 1016,0 25
22.05.2018 10:00:00 17,0 12,1 8 4 OZO 1015,7 -
22.05.2018 09:00:00 16,3 12,3 5 3 ZO 1015,5 -
22.05.2018 08:00:00 15,7 13,2 4 2 ZO 1015,0 30
22.05.2018 07:00:00 15,3 13,1 9 5 ZZO 1014,5 -
22.05.2018 06:00:00 15,9 13,4 8 4 Z 1014,2 -
22.05.2018 05:00:00 15,8 13,3 8 4 ZZO 1014,1 30
22.05.2018 04:00:00 16,3 13,3 5 3 ZZW 1014,1 -
22.05.2018 03:00:00 16,3 13,2 8 4 ZW 1014,3 -
22.05.2018 02:00:00 16,2 13,1 13 7 ZZW 1014,6 30
22.05.2018 01:00:00 16,4 13,5 13 7 ZW 1014,7 -
22.05.2018 00:00:00 16,5 14,1 16 9 ZW 1014,6 -
21.05.2018 23:00:00 17,3 14,6 13 7 ZW 1014,1 30
21.05.2018 22:00:00 18,6 15,1 13 7 ZZW 1013,1 -
21.05.2018 21:00:00 20,4 15,4 22 12 ZW 1012,3 -
21.05.2018 20:00:00 20,1 16,2 4 2 OZO 1012,1 30
21.05.2018 19:00:00 18,8 15,7 16 9 WNW 1012,1 -
21.05.2018 18:00:00 23,0 13,2 22 12 W 1011,4 -
21.05.2018 17:00:00 24,0 12,8 22 12 ZW 1011,1 30
21.05.2018 16:00:00 24,9 13,5 15 8 ZW 1011,3 -
21.05.2018 15:00:00 24,7 13,0 16 9 WZW 1011,8 -
21.05.2018 14:00:00 23,7 13,1 11 6 ZW 1012,6 30
21.05.2018 13:00:00 22,3 14,2 5 3 W 1013,1 -
21.05.2018 12:00:00 21,3 13,7 9 5 W 1013,1 -
21.05.2018 11:00:00 20,5 14,5 5 3 ZZO 1013,0 20
21.05.2018 10:00:00 18,2 14,4 2 1 NO 1013,1 -
21.05.2018 09:00:00 15,9 14,9 4 2 NNO 1012,7 -
21.05.2018 08:00:00 16,2 14,9 4 2 NNO 1012,5 25
21.05.2018 07:00:00 16,1 15,0 5 3 O 1012,0 -
21.05.2018 06:00:00 16,3 14,8 0 0 N 1012,0 -
21.05.2018 05:00:00 16,4 14,8 4 2 ONO 1011,9 20
21.05.2018 04:00:00 16,6 14,8 0 0 N 1012,3 -
21.05.2018 03:00:00 16,9 14,5 8 4 O 1012,6 -
21.05.2018 02:00:00 17,3 14,6 8 4 NNO 1012,9 20
21.05.2018 01:00:00 16,9 14,4 8 4 Z 1013,1 -
21.05.2018 00:00:00 17,0 14,5 5 3 ZO 1013,4 -
20.05.2018 23:00:00 18,1 13,8 4 2 ZO 1013,4 25
20.05.2018 22:00:00 18,7 13,3 8 4 Z 1012,7 -
20.05.2018 21:00:00 19,3 13,2 11 6 Z 1012,5 -
20.05.2018 20:00:00 19,9 13,1 18 10 ZZO 1012,0 30
20.05.2018 19:00:00 22,8 12,9 8 4 ZW 1012,4 -
20.05.2018 18:00:00 22,0 13,0 13 7 NNW 1012,2 -
20.05.2018 17:00:00 24,4 12,1 13 7 NW 1011,6 25
20.05.2018 16:00:00 23,9 15,1 18 10 N 1012,4 -
20.05.2018 15:00:00 23,4 15,1 21 11 NNO 1013,4 -
20.05.2018 14:00:00 22,1 16,0 24 13 NNO 1014,1 20
20.05.2018 13:00:00 21,3 15,9 11 6 N 1014,5 -
20.05.2018 12:00:00 21,6 14,7 5 3 OZO 1014,4 -
20.05.2018 11:00:00 20,2 15,5 0 0 N 1014,5 20
20.05.2018 10:00:00 18,0 15,3 4 2 O 1014,6 -
20.05.2018 09:00:00 16,2 14,7 5 3 NO 1014,7 -
20.05.2018 08:00:00 14,5 13,9 4 2 ONO 1014,7 0,9
20.05.2018 07:00:00 14,6 14,0 5 3 NO 1014,5 -
20.05.2018 06:00:00 14,6 13,6 0 0 N 1014,3 -
20.05.2018 05:00:00 14,9 14,1 9 5 Z 1014,3 4,0
20.05.2018 04:00:00 15,6 14,8 4 2 ONO 1014,9 -
20.05.2018 03:00:00 15,7 14,6 4 2 ZZO 1015,2 -
20.05.2018 02:00:00 16,2 14,9 11 6 Z 1015,6 30
20.05.2018 01:00:00 16,4 14,8 9 5 Z 1015,7 -
20.05.2018 00:00:00 17,2 15,7 4 2 Z 1015,6 -
19.05.2018 23:00:00 17,4 15,2 5 3 NNW 1015,3 30
19.05.2018 22:00:00 17,8 16,1 13 7 NNW 1015,3 -
19.05.2018 21:00:00 17,9 15,2 8 4 ZZW 1015,3 -
19.05.2018 20:00:00 17,9 15,0 15 8 Z 1015,2 8
19.05.2018 19:00:00 17,5 14,6 18 10 ONO 1015,5 -
19.05.2018 18:00:00 20,0 13,3 28 15 Z 1013,5 -
19.05.2018 17:00:00 27,9 9,4 8 4 NNO 1012,8 30
19.05.2018 16:00:00 27,1 10,2 11 6 N 1013,4 -
19.05.2018 15:00:00 26,0 7,8 8 4 NO 1014,1 -
19.05.2018 14:00:00 25,2 9,7 9 5 NNO 1015,0 30
19.05.2018 13:00:00 25,2 12,1 15 8 ONO 1015,4 -
19.05.2018 12:00:00 24,4 10,5 16 9 O 1015,5 -
19.05.2018 11:00:00 22,3 12,1 15 8 ONO 1015,7 25
19.05.2018 10:00:00 20,8 12,2 15 8 ONO 1015,4 -
19.05.2018 09:00:00 18,4 12,6 11 6 ONO 1015,2 -
19.05.2018 08:00:00 15,4 13,4 9 5 N 1015,0 30
19.05.2018 07:00:00 15,7 13,5 9 5 O 1014,4 -
19.05.2018 06:00:00 16,1 14,5 9 5 NO 1014,3 -
19.05.2018 05:00:00 16,0 14,9 9 5 NNO 1014,5 30
19.05.2018 04:00:00 16,0 15,0 8 4 N 1014,8 -
19.05.2018 03:00:00 15,8 14,3 8 4 NNO 1015,2 -
19.05.2018 02:00:00 16,3 14,5 9 5 NO 1015,5 30
19.05.2018 01:00:00 16,3 14,5 5 3 NO 1015,5 -
19.05.2018 00:00:00 16,3 14,3 8 4 NO 1015,5 -
18.05.2018 23:00:00 17,0 14,2 8 4 NO 1014,7 30
18.05.2018 22:00:00 17,4 15,3 13 7 NO 1014,5 -
18.05.2018 21:00:00 17,3 14,7 18 10 NNW 1014,2 -
18.05.2018 20:00:00 18,9 14,6 11 6 N 1013,6 30
18.05.2018 19:00:00 22,9 12,9 13 7 ZO 1012,5 -
18.05.2018 18:00:00 27,3 10,1 13 7 Z 1012,4 -
18.05.2018 17:00:00 27,5 11,6 8 4 ZZO 1012,5 25
18.05.2018 16:00:00 26,1 11,0 11 6 NW 1013,2 -
18.05.2018 15:00:00 25,8 11,4 13 7 NNW 1013,8 -
18.05.2018 14:00:00 24,5 11,3 11 6 N 1014,6 30
18.05.2018 13:00:00 23,3 13,8 13 7 NNO 1015,3 -
18.05.2018 12:00:00 20,0 15,2 13 7 N 1015,2 -
18.05.2018 11:00:00 19,4 13,7 4 2 NNO 1015,6 30
18.05.2018 10:00:00 18,4 14,1 11 6 NO 1015,2 -
18.05.2018 09:00:00 17,5 14,5 8 4 NO 1015,2 -
18.05.2018 08:00:00 15,4 13,4 2 1 O 1014,8 30
18.05.2018 07:00:00 14,5 12,9 4 2 O 1014,2 -
18.05.2018 06:00:00 15,0 12,9 4 2 ZZO 1013,9 -
18.05.2018 05:00:00 15,7 13,2 4 2 NW 1014,2 30
18.05.2018 04:00:00 16,3 14,1 8 4 NW 1014,4 -
18.05.2018 03:00:00 17,2 14,3 13 7 W 1014,6 -
18.05.2018 02:00:00 17,4 14,4 11 6 W 1015,0 30
18.05.2018 01:00:00 18,3 14,6 15 8 WNW 1015,1 -
18.05.2018 00:00:00 18,9 14,0 15 8 W 1014,4 -
17.05.2018 23:00:00 20,1 13,5 16 9 WNW 1013,8 30
17.05.2018 22:00:00 21,2 13,1 18 10 W 1012,7 -
17.05.2018 21:00:00 22,5 12,1 21 11 W 1012,3 -
17.05.2018 20:00:00 24,6 10,8 29 16 WZW 1011,6 30

tt = temperatuur
td = dauwpunt
ff = windsnelheid
dd = windrichting
ppp = luchtdruk
vv = zicht

Weerstations in de omgeving